Retour au catalogue

SITRO-AIS-53

ActifNavigationSSO
NORAD 59776·PAYLOAD·🇷🇺 Russia
Ce nom de satellite n'a pas encore été confirmé par des sources officielles.

Lancé May 16, 2024 depuis Plesetsk Cosmodrome

Loading…

Prochains Passages (prochaines 24 heures)

TLE

FraisSource: Space-Track

Époque: Sep 14, 2026, 07:54 UTC

1 59776U 24092D   26257.32963316  .00017499  00000-0  44033-3 0  9993
2 59776  97.6694  34.3600 0006392 183.5657 176.5544 15.39981694129456

Suivez SITRO-AIS-53 en temps réel avec AllMySat

Download on the App Store